Time,TemperatureF,DewpointF,PressureIn,WindDirection,WindDirectionDegrees,WindSpeedMPH,WindSpeedGustMPH,Humidity,HourlyPrecipIn,Conditions,Clouds,dailyrainin,SoftwareType,DateUTC
2013-08-15 00:01:00,61.5,54.7,30.11,NNE,32,2.9,4.3,78,0.00,,,0.00,WUHU21623XXSP,2013-08-15 05:01:00,
2013-08-15 00:06:00,61.5,54.7,30.11,NNE,28,2.6,4.3,78,0.00,,,0.00,WUHU21623XXSP,2013-08-15 05:06:00,
2013-08-15 00:11:00,61.5,54.7,30.11,NE,45,0.7,3.4,78,0.00,,,0.00,WUHU21623XXSP,2013-08-15 05:11:00,
2013-08-15 00:16:00,61.3,54.5,30.11,NNE,25,1.7,3.1,78,0.00,,,0.00,WUHU21623XXSP,2013-08-15 05:16:00,
2013-08-15 00:21:00,61.3,54.5,30.11,NE,45,1.3,4.7,78,0.00,,,0.00,WUHU21623XXSP,2013-08-15 05:21:00,
2013-08-15 00:26:00,61.2,54.4,30.11,NNE,26,1.6,4.7,78,0.00,,,0.00,WUHU21623XXSP,2013-08-15 05:26:00,
2013-08-15 00:31:00,61.0,54.5,30.11,NNE,22,2.2,4.3,79,0.00,,,0.00,WUHU21623XXSP,2013-08-15 05:31:00,
2013-08-15 00:36:00,61.0,54.5,30.11,North,0,0.9,4.3,79,0.00,,,0.00,WUHU21623XXSP,2013-08-15 05:36:00,
2013-08-15 00:41:00,60.6,54.1,30.11,NNE,22,0.0,2.5,79,0.00,,,0.00,WUHU21623XXSP,2013-08-15 05:41:00,
2013-08-15 00:46:00,60.4,53.9,30.11,NE,45,0.0,1.3,79,0.00,,,0.00,WUHU21623XXSP,2013-08-15 05:46:00,
2013-08-15 00:51:00,60.4,54.3,30.10,NNE,22,0.7,1.3,80,0.00,,,0.00,WUHU21623XXSP,2013-08-15 05:51:00,
2013-08-15 00:56:00,60.4,54.3,30.10,NNE,32,0.8,1.3,80,0.00,,,0.00,WUHU21623XXSP,2013-08-15 05:56:00,
2013-08-15 01:01:00,60.3,54.2,30.10,NE,45,0.0,1.3,80,0.00,,,0.00,WUHU21623XXSP,2013-08-15 06:01:00,
2013-08-15 01:13:00,60.3,54.2,30.10,NE,45,0.0,0.0,80,0.00,,,0.00,WUHU21623XXSP,2013-08-15 06:13:00,
2013-08-15 01:18:00,59.7,53.9,30.09,NE,50,1.0,2.7,81,0.00,,,0.00,WUHU21623XXSP,2013-08-15 06:18:00,
2013-08-15 01:23:00,59.7,53.9,30.09,NE,45,1.8,2.7,81,0.00,,,0.00,WUHU21623XXSP,2013-08-15 06:23:00,
2013-08-15 01:28:00,59.5,53.7,30.09,NE,48,2.3,3.6,81,0.00,,,0.00,WUHU21623XXSP,2013-08-15 06:28:00,
2013-08-15 01:33:00,59.4,53.6,30.08,ENE,67,3.8,4.0,81,0.00,,,0.00,WUHU21623XXSP,2013-08-15 06:33:00,
2013-08-15 01:38:00,59.2,53.4,30.08,NE,45,1.8,6.3,81,0.00,,,0.00,WUHU21623XXSP,2013-08-15 06:38:00,
2013-08-15 01:43:00,59.0,53.2,30.08,NE,45,1.3,6.3,81,0.00,,,0.00,WUHU21623XXSP,2013-08-15 06:43:00,
2013-08-15 01:48:00,58.8,53.4,30.08,NE,35,1.3,3.4,82,0.00,,,0.00,WUHU21623XXSP,2013-08-15 06:48:00,
2013-08-15 01:53:00,58.8,53.4,30.08,NE,38,1.3,3.4,82,0.00,,,0.00,WUHU21623XXSP,2013-08-15 06:53:00,
2013-08-15 01:58:00,58.8,53.4,30.08,NE,37,2.2,5.8,82,0.00,,,0.00,WUHU21623XXSP,2013-08-15 06:58:00,
2013-08-15 02:03:00,58.8,53.4,30.08,NNE,22,1.1,5.8,82,0.00,,,0.00,WUHU21623XXSP,2013-08-15 07:03:00,
2013-08-15 02:08:00,58.6,53.2,30.08,NNE,16,1.6,2.7,82,0.00,,,0.00,WUHU21623XXSP,2013-08-15 07:08:00,
2013-08-15 02:13:00,58.5,53.4,30.08,NNE,22,1.6,2.7,83,0.00,,,0.00,WUHU21623XXSP,2013-08-15 07:13:00,
2013-08-15 02:18:00,58.3,53.2,30.08,NNE,22,1.6,2.7,83,0.00,,,0.00,WUHU21623XXSP,2013-08-15 07:18:00,
2013-08-15 02:23:00,57.9,52.8,30.08,North,0,1.8,2.7,83,0.00,,,0.00,WUHU21623XXSP,2013-08-15 07:23:00,
2013-08-15 02:28:00,57.7,52.9,30.08,NNE,22,2.1,4.5,84,0.00,,,0.00,WUHU21623XXSP,2013-08-15 07:28:00,
2013-08-15 02:33:00,57.7,52.9,30.08,NNE,22,0.4,4.5,84,0.00,,,0.00,WUHU21623XXSP,2013-08-15 07:33:00,
2013-08-15 02:38:00,57.7,52.9,30.08,NNE,22,0.8,1.3,84,0.00,,,0.00,WUHU21623XXSP,2013-08-15 07:38:00,
2013-08-15 02:43:00,57.7,52.9,30.08,NNE,22,0.0,1.6,84,0.00,,,0.00,WUHU21623XXSP,2013-08-15 07:43:00,
2013-08-15 02:48:00,57.6,52.8,30.08,NNE,22,0.8,1.6,84,0.00,,,0.00,WUHU21623XXSP,2013-08-15 07:48:00,
2013-08-15 02:53:00,57.4,52.6,30.08,NNE,22,2.0,2.9,84,0.00,,,0.00,WUHU21623XXSP,2013-08-15 07:53:00,
2013-08-15 02:58:00,57.2,52.4,30.08,NNE,22,0.9,2.9,84,0.00,,,0.00,WUHU21623XXSP,2013-08-15 07:58:00,
2013-08-15 03:03:00,57.0,52.2,30.08,NNE,22,1.2,2.7,84,0.00,,,0.00,WUHU21623XXSP,2013-08-15 08:03:00,
2013-08-15 03:08:00,57.0,52.5,30.08,NNE,22,0.7,3.1,85,0.00,,,0.00,WUHU21623XXSP,2013-08-15 08:08:00,
2013-08-15 03:13:00,57.0,52.5,30.08,NNE,22,1.3,3.1,85,0.00,,,0.00,WUHU21623XXSP,2013-08-15 08:13:00,
2013-08-15 03:18:00,57.0,52.5,30.08,NNE,22,4.0,4.0,85,0.00,,,0.00,WUHU21623XXSP,2013-08-15 08:18:00,
2013-08-15 03:23:00,57.0,52.5,30.07,NNE,22,2.2,4.3,85,0.00,,,0.00,WUHU21623XXSP,2013-08-15 08:23:00,
2013-08-15 03:28:00,57.0,52.5,30.07,NNE,22,4.3,4.7,85,0.00,,,0.00,WUHU21623XXSP,2013-08-15 08:28:00,
2013-08-15 03:32:00,57.0,52.5,30.08,NNE,15,2.2,5.4,85,0.00,,,0.00,WUHU21623XXSP,2013-08-15 08:32:00,
2013-08-15 03:38:00,57.0,52.5,30.08,NNE,22,2.5,5.4,85,0.00,,,0.00,WUHU21623XXSP,2013-08-15 08:38:00,
2013-08-15 03:43:00,56.8,52.3,30.08,NNE,22,1.0,5.6,85,0.00,,,0.00,WUHU21623XXSP,2013-08-15 08:43:00,
2013-08-15 03:48:00,56.8,52.3,30.07,NNE,22,1.4,5.6,85,0.00,,,0.00,WUHU21623XXSP,2013-08-15 08:48:00,
2013-08-15 03:53:00,56.8,52.3,30.07,NNE,22,1.6,5.8,85,0.00,,,0.00,WUHU21623XXSP,2013-08-15 08:53:00,
2013-08-15 03:58:00,56.8,52.3,30.08,NNE,24,1.3,5.8,85,0.00,,,0.00,WUHU21623XXSP,2013-08-15 08:58:00,
2013-08-15 04:03:00,56.8,52.3,30.08,NNE,22,1.8,3.1,85,0.00,,,0.00,WUHU21623XXSP,2013-08-15 09:03:00,
2013-08-15 04:08:00,56.8,52.3,30.07,NE,36,1.4,2.9,85,0.00,,,0.00,WUHU21623XXSP,2013-08-15 09:08:00,
2013-08-15 04:13:00,56.8,52.3,30.07,NE,44,2.3,4.5,85,0.00,,,0.00,WUHU21623XXSP,2013-08-15 09:13:00,
2013-08-15 04:18:00,56.7,52.2,30.07,NNE,31,2.3,5.4,85,0.00,,,0.00,WUHU21623XXSP,2013-08-15 09:18:00,
2013-08-15 04:23:00,56.5,52.4,30.07,NNE,22,5.8,6.7,86,0.00,,,0.00,WUHU21623XXSP,2013-08-15 09:23:00,
2013-08-15 04:28:00,56.7,52.6,30.07,NE,36,4.8,6.9,86,0.00,,,0.00,WUHU21623XXSP,2013-08-15 09:28:00,
2013-08-15 04:33:00,56.7,52.6,30.07,NE,37,2.2,7.2,86,0.00,,,0.00,WUHU21623XXSP,2013-08-15 09:33:00,
2013-08-15 04:38:00,56.5,52.4,30.07,NNE,31,1.5,7.2,86,0.00,,,0.00,WUHU21623XXSP,2013-08-15 09:38:00,
2013-08-15 04:43:00,56.5,52.4,30.07,NNE,24,1.9,5.6,86,0.00,,,0.00,WUHU21623XXSP,2013-08-15 09:43:00,
2013-08-15 04:48:00,56.5,52.4,30.06,NE,44,1.5,4.7,86,0.00,,,0.00,WUHU21623XXSP,2013-08-15 09:48:00,
2013-08-15 04:53:00,56.3,52.2,30.07,NE,36,1.2,2.9,86,0.00,,,0.00,WUHU21623XXSP,2013-08-15 09:53:00,
2013-08-15 04:58:00,56.3,52.2,30.07,NNE,22,1.3,2.5,86,0.00,,,0.00,WUHU21623XXSP,2013-08-15 09:58:00,
2013-08-15 05:03:00,56.1,52.0,30.07,NNE,22,1.3,2.5,86,0.00,,,0.00,WUHU21623XXSP,2013-08-15 10:03:00,
2013-08-15 05:08:00,56.1,52.0,30.07,NNE,22,1.1,1.8,86,0.00,,,0.00,WUHU21623XXSP,2013-08-15 10:08:00,
2013-08-15 05:13:00,55.9,51.8,30.07,NNE,27,0.6,2.7,86,0.00,,,0.00,WUHU21623XXSP,2013-08-15 10:13:00,
2013-08-15 05:18:00,55.9,51.8,30.07,NNE,22,0.7,3.6,86,0.00,,,0.00,WUHU21623XXSP,2013-08-15 10:18:00,
2013-08-15 05:23:00,55.9,51.8,30.07,NNE,22,1.7,3.6,86,0.00,,,0.00,WUHU21623XXSP,2013-08-15 10:23:00,
2013-08-15 05:28:00,55.9,51.8,30.07,NNE,22,1.8,2.9,86,0.00,,,0.00,WUHU21623XXSP,2013-08-15 10:28:00,
2013-08-15 05:33:00,55.9,51.8,30.07,NNE,22,2.5,4.7,86,0.00,,,0.00,WUHU21623XXSP,2013-08-15 10:33:00,
2013-08-15 05:38:00,55.8,51.7,30.07,NNE,22,2.6,5.8,86,0.00,,,0.00,WUHU21623XXSP,2013-08-15 10:38:00,
2013-08-15 05:43:00,55.6,51.5,30.08,NNE,22,2.0,5.8,86,0.00,,,0.00,WUHU21623XXSP,2013-08-15 10:43:00,
2013-08-15 05:48:00,55.6,51.5,30.08,NNE,16,3.0,4.9,86,0.00,,,0.00,WUHU21623XXSP,2013-08-15 10:48:00,
2013-08-15 05:53:00,55.6,51.5,30.08,NNE,22,3.6,4.9,86,0.00,,,0.00,WUHU21623XXSP,2013-08-15 10:53:00,
2013-08-15 05:58:00,55.2,51.1,30.08,NNE,22,4.3,4.7,86,0.00,,,0.00,WUHU21623XXSP,2013-08-15 10:58:00,
2013-08-15 06:03:00,55.2,51.1,30.08,NNE,22,4.3,4.7,86,0.00,,,0.00,WUHU21623XXSP,2013-08-15 11:03:00,
2013-08-15 06:08:00,55.2,51.1,30.08,North,0,3.1,4.9,86,0.00,,,0.00,WUHU21623XXSP,2013-08-15 11:08:00,
2013-08-15 06:13:00,55.0,50.9,30.08,NNE,22,1.4,4.9,86,0.00,,,0.00,WUHU21623XXSP,2013-08-15 11:13:00,
2013-08-15 06:18:00,55.0,50.9,30.08,NNE,22,2.9,4.7,86,0.00,,,0.00,WUHU21623XXSP,2013-08-15 11:18:00,
2013-08-15 06:23:00,55.2,51.4,30.08,NNE,22,2.0,5.4,87,0.00,,,0.00,WUHU21623XXSP,2013-08-15 11:23:00,
2013-08-15 06:28:00,55.2,51.4,30.09,North,7,2.6,5.4,87,0.00,,,0.00,WUHU21623XXSP,2013-08-15 11:28:00,
2013-08-15 06:33:00,55.2,51.4,30.09,NNE,14,2.2,5.4,87,0.00,,,0.00,WUHU21623XXSP,2013-08-15 11:33:00,
2013-08-15 06:38:00,55.0,51.2,30.10,North,9,1.7,3.1,87,0.00,,,0.00,WUHU21623XXSP,2013-08-15 11:38:00,
2013-08-15 06:43:00,55.2,51.4,30.09,NNE,22,1.8,5.1,87,0.00,,,0.00,WUHU21623XXSP,2013-08-15 11:43:00,
2013-08-15 06:48:00,55.2,51.4,30.09,NNE,22,3.6,5.1,87,0.00,,,0.00,WUHU21623XXSP,2013-08-15 11:48:00,
2013-08-15 06:53:00,55.2,51.4,30.09,NNE,28,4.3,5.8,87,0.00,,,0.00,WUHU21623XXSP,2013-08-15 11:53:00,
2013-08-15 06:58:00,55.6,51.8,30.09,NNE,22,4.1,6.5,87,0.00,,,0.00,WUHU21623XXSP,2013-08-15 11:58:00,
2013-08-15 07:03:00,55.8,52.0,30.09,NNE,22,5.4,7.2,87,0.00,,,0.00,WUHU21623XXSP,2013-08-15 12:03:00,
2013-08-15 07:08:00,56.1,52.3,30.10,NNE,22,3.8,7.2,87,0.00,,,0.00,WUHU21623XXSP,2013-08-15 12:08:00,
2013-08-15 07:13:00,56.7,52.9,30.10,NNE,22,3.4,6.3,87,0.00,,,0.00,WUHU21623XXSP,2013-08-15 12:13:00,
2013-08-15 07:18:00,57.4,53.5,30.10,NNE,22,5.8,6.7,87,0.00,,,0.00,WUHU21623XXSP,2013-08-15 12:18:00,
2013-08-15 07:23:00,57.9,54.0,30.10,North,0,2.7,6.7,87,0.00,,,0.00,WUHU21623XXSP,2013-08-15 12:23:00,
2013-08-15 07:28:00,58.6,54.7,30.10,NNE,22,6.9,6.9,87,0.00,,,0.00,WUHU21623XXSP,2013-08-15 12:28:00,
2013-08-15 07:33:00,59.2,55.0,30.10,North,0,4.3,6.9,86,0.00,,,0.00,WUHU21623XXSP,2013-08-15 12:33:00,
2013-08-15 07:38:00,59.9,55.7,30.10,NNE,14,3.4,6.9,86,0.00,,,0.00,WUHU21623XXSP,2013-08-15 12:38:00,
2013-08-15 07:43:00,60.6,56.1,30.11,NNE,22,4.7,6.9,85,0.00,,,0.00,WUHU21623XXSP,2013-08-15 12:43:00,
2013-08-15 07:48:00,61.2,56.3,30.11,NNE,22,6.3,7.2,84,0.00,,,0.00,WUHU21623XXSP,2013-08-15 12:48:00,
2013-08-15 07:53:00,61.7,56.8,30.10,NNE,22,6.5,7.2,84,0.00,,,0.00,WUHU21623XXSP,2013-08-15 12:53:00,
2013-08-15 07:58:00,62.2,57.0,30.10,NNE,20,1.9,7.2,83,0.00,,,0.00,WUHU21623XXSP,2013-08-15 12:58:00,
2013-08-15 08:03:00,62.8,57.6,30.11,NNE,30,5.7,7.2,83,0.00,,,0.00,WUHU21623XXSP,2013-08-15 13:03:00,
2013-08-15 08:08:00,63.0,57.5,30.10,NNE,27,1.7,7.2,82,0.00,,,0.00,WUHU21623XXSP,2013-08-15 13:08:00,
2013-08-15 08:13:00,63.3,57.8,30.10,NNE,32,3.0,7.8,82,0.00,,,0.00,WUHU21623XXSP,2013-08-15 13:13:00,
2013-08-15 08:18:00,63.7,57.8,30.10,NNE,22,9.2,9.4,81,0.00,,,0.00,WUHU21623XXSP,2013-08-15 13:18:00,
2013-08-15 08:23:00,64.2,58.0,30.10,NE,45,7.2,9.4,80,0.00,,,0.00,WUHU21623XXSP,2013-08-15 13:23:00,
2013-08-15 08:28:00,64.6,58.4,30.10,NNE,23,4.5,8.7,80,0.00,,,0.00,WUHU21623XXSP,2013-08-15 13:28:00,
2013-08-15 08:33:00,65.1,58.8,30.10,NE,47,3.3,8.7,80,0.00,,,0.00,WUHU21623XXSP,2013-08-15 13:33:00,
2013-08-15 08:38:00,65.8,59.2,30.10,NE,44,1.5,8.7,79,0.00,,,0.00,WUHU21623XXSP,2013-08-15 13:38:00,
2013-08-15 08:43:00,66.4,59.4,30.10,NE,45,7.6,8.5,78,0.00,,,0.00,WUHU21623XXSP,2013-08-15 13:43:00,
2013-08-15 08:48:00,66.7,59.7,30.10,NE,45,2.0,8.5,78,0.00,,,0.00,WUHU21623XXSP,2013-08-15 13:48:00,
2013-08-15 08:53:00,67.5,60.1,30.10,NE,45,5.6,8.5,77,0.00,,,0.00,WUHU21623XXSP,2013-08-15 13:53:00,
2013-08-15 08:58:00,67.6,59.5,30.10,ENE,58,5.3,8.5,75,0.00,,,0.00,WUHU21623XXSP,2013-08-15 13:58:00,
2013-08-15 09:03:00,68.2,60.1,30.10,NE,45,3.9,8.5,75,0.00,,,0.00,WUHU21623XXSP,2013-08-15 14:03:00,
2013-08-15 09:08:00,68.5,60.0,30.10,ENE,67,3.1,6.3,74,0.00,,,0.00,WUHU21623XXSP,2013-08-15 14:08:00,
2013-08-15 09:13:00,69.1,60.2,30.10,NE,45,3.4,6.3,73,0.00,,,0.00,WUHU21623XXSP,2013-08-15 14:13:00,
2013-08-15 09:18:00,69.6,60.3,30.10,East,92,0.9,4.7,72,0.00,,,0.00,WUHU21623XXSP,2013-08-15 14:18:00,
2013-08-15 09:23:00,70.0,60.7,30.10,ENE,72,2.2,6.3,72,0.00,,,0.00,WUHU21623XXSP,2013-08-15 14:23:00,
2013-08-15 09:28:00,70.5,61.2,30.10,ENE,74,1.6,6.3,72,0.00,,,0.00,WUHU21623XXSP,2013-08-15 14:28:00,
2013-08-15 09:33:00,71.1,61.4,30.10,NE,45,3.8,5.1,71,0.00,,,0.00,WUHU21623XXSP,2013-08-15 14:33:00,
2013-08-15 09:38:00,71.2,61.1,30.10,SE,135,1.6,3.8,70,0.00,,,0.00,WUHU21623XXSP,2013-08-15 14:38:00,
2013-08-15 09:43:00,72.0,61.9,30.10,ENE,74,2.2,4.5,70,0.00,,,0.00,WUHU21623XXSP,2013-08-15 14:43:00,
2013-08-15 09:48:00,72.3,61.8,30.10,ENE,65,1.3,4.5,69,0.00,,,0.00,WUHU21623XXSP,2013-08-15 14:48:00,
2013-08-15 09:53:00,72.5,61.5,30.10,ENE,67,1.8,4.3,68,0.00,,,0.00,WUHU21623XXSP,2013-08-15 14:53:00,
2013-08-15 09:58:00,73.0,62.0,30.10,NE,45,3.1,4.9,68,0.00,,,0.00,WUHU21623XXSP,2013-08-15 14:58:00,
2013-08-15 10:03:00,73.0,62.0,30.10,ENE,76,2.8,4.9,68,0.00,,,0.00,WUHU21623XXSP,2013-08-15 15:03:00,
2013-08-15 10:08:00,73.2,61.4,30.10,ENE,63,0.9,5.6,66,0.00,,,0.00,WUHU21623XXSP,2013-08-15 15:08:00,
2013-08-15 10:13:00,73.4,62.0,30.10,ENE,67,2.2,5.6,67,0.00,,,0.00,WUHU21623XXSP,2013-08-15 15:13:00,
2013-08-15 10:18:00,73.9,62.0,30.10,NNE,20,6.5,9.6,66,0.00,,,0.00,WUHU21623XXSP,2013-08-15 15:18:00,
2013-08-15 10:23:00,73.9,61.6,30.10,NE,41,2.7,9.6,65,0.00,,,0.00,WUHU21623XXSP,2013-08-15 15:23:00,
2013-08-15 10:28:00,73.9,62.0,30.10,NNE,33,2.1,6.0,66,0.00,,,0.00,WUHU21623XXSP,2013-08-15 15:28:00,
2013-08-15 10:33:00,74.1,61.8,30.10,NNE,12,7.3,8.9,65,0.00,,,0.00,WUHU21623XXSP,2013-08-15 15:33:00,
2013-08-15 10:38:00,73.9,61.6,30.10,NNE,17,5.3,8.9,65,0.00,,,0.00,WUHU21623XXSP,2013-08-15 15:38:00,
2013-08-15 10:43:00,74.3,62.0,30.10,ENE,60,2.0,8.1,65,0.00,,,0.00,WUHU21623XXSP,2013-08-15 15:43:00,
2013-08-15 10:48:00,74.5,61.7,30.10,NNE,20,7.0,8.3,64,0.00,,,0.00,WUHU21623XXSP,2013-08-15 15:48:00,
2013-08-15 10:53:00,74.3,61.5,30.09,North,0,11.0,11.0,64,0.00,,,0.00,WUHU21623XXSP,2013-08-15 15:53:00,
2013-08-15 10:58:00,74.5,61.7,30.09,NNE,22,4.8,11.0,64,0.00,,,0.00,WUHU21623XXSP,2013-08-15 15:58:00,
2013-08-15 11:03:00,74.8,62.0,30.09,NNE,22,11.4,11.4,64,0.00,,,0.00,WUHU21623XXSP,2013-08-15 16:03:00,
2013-08-15 11:08:00,74.8,61.1,30.09,NNE,22,6.7,11.4,62,0.00,,,0.00,WUHU21623XXSP,2013-08-15 16:08:00,
2013-08-15 11:13:00,74.8,61.1,30.09,NE,43,3.9,10.5,62,0.00,,,0.00,WUHU21623XXSP,2013-08-15 16:13:00,
2013-08-15 11:19:00,75.0,61.8,30.09,NE,45,6.9,9.4,63,0.00,,,0.00,WUHU21623XXSP,2013-08-15 16:19:00,
2013-08-15 11:24:00,75.0,60.8,30.09,NE,45,7.6,10.3,61,0.00,,,0.00,WUHU21623XXSP,2013-08-15 16:24:00,
2013-08-15 11:29:00,75.4,60.8,30.09,NE,36,5.3,10.3,60,0.00,,,0.00,WUHU21623XXSP,2013-08-15 16:29:00,
2013-08-15 11:34:00,75.4,60.8,30.09,NNE,22,6.5,8.7,60,0.00,,,0.00,WUHU21623XXSP,2013-08-15 16:34:00,
2013-08-15 11:39:00,75.0,60.8,30.09,ENE,62,5.2,8.7,61,0.00,,,0.00,WUHU21623XXSP,2013-08-15 16:39:00,
2013-08-15 11:44:00,75.2,61.0,30.09,ENE,78,2.0,8.7,61,0.00,,,0.00,WUHU21623XXSP,2013-08-15 16:44:00,
2013-08-15 11:50:00,75.6,61.4,30.08,NE,42,3.4,7.4,61,0.00,,,0.00,WUHU21623XXSP,2013-08-15 16:50:00,
2013-08-15 11:55:00,75.9,61.7,30.08,NNE,22,7.8,8.3,61,0.00,,,0.00,WUHU21623XXSP,2013-08-15 16:55:00,
2013-08-15 12:00:00,75.9,60.7,30.08,North,0,7.8,12.5,59,0.00,,,0.00,WUHU21623XXSP,2013-08-15 17:00:00,
2013-08-15 12:05:00,76.1,61.4,30.08,ENE,59,4.1,12.5,60,0.00,,,0.00,WUHU21623XXSP,2013-08-15 17:05:00,
2013-08-15 12:10:00,76.1,60.9,30.08,NNE,33,4.9,8.1,59,0.00,,,0.00,WUHU21623XXSP,2013-08-15 17:10:00,
2013-08-15 12:15:00,76.1,60.9,30.08,NNE,23,7.7,12.8,59,0.00,,,0.00,WUHU21623XXSP,2013-08-15 17:15:00,
2013-08-15 12:20:00,76.3,61.6,30.08,North,0,8.7,12.8,60,0.00,,,0.00,WUHU21623XXSP,2013-08-15 17:20:00,
2013-08-15 12:25:00,76.3,60.6,30.08,NNE,22,11.0,14.8,58,0.00,,,0.00,WUHU21623XXSP,2013-08-15 17:25:00,
2013-08-15 12:30:00,76.3,61.1,30.07,East,79,2.6,14.8,59,0.00,,,0.00,WUHU21623XXSP,2013-08-15 17:30:00,
2013-08-15 12:35:00,76.5,60.8,30.07,NNE,22,8.1,13.0,58,0.00,,,0.00,WUHU21623XXSP,2013-08-15 17:35:00,
2013-08-15 12:40:00,76.3,60.6,30.07,NNE,25,5.1,13.0,58,0.00,,,0.00,WUHU21623XXSP,2013-08-15 17:40:00,
2013-08-15 12:46:00,76.5,61.3,30.06,NNE,22,8.3,10.7,59,0.00,,,0.00,WUHU21623XXSP,2013-08-15 17:46:00,
2013-08-15 12:51:00,76.8,61.1,30.06,NNE,31,8.5,13.0,58,0.00,,,0.00,WUHU21623XXSP,2013-08-15 17:51:00,
2013-08-15 12:56:00,76.6,60.4,30.06,NNE,22,8.3,14.1,57,0.00,,,0.00,WUHU21623XXSP,2013-08-15 17:56:00,
2013-08-15 13:01:00,76.6,60.9,30.06,NNE,22,9.4,13.6,58,0.00,,,0.00,WUHU21623XXSP,2013-08-15 18:01:00,
2013-08-15 13:06:00,76.6,61.4,30.06,ENE,67,6.9,15.0,59,0.00,,,0.00,WUHU21623XXSP,2013-08-15 18:06:00,
2013-08-15 13:11:00,76.8,61.1,30.06,North,3,4.1,15.0,58,0.00,,,0.00,WUHU21623XXSP,2013-08-15 18:11:00,
2013-08-15 13:16:00,77.0,60.8,30.06,NNE,22,6.9,12.1,57,0.00,,,0.00,WUHU21623XXSP,2013-08-15 18:16:00,
2013-08-15 13:22:00,77.2,61.5,30.06,NNW,337,0.7,9.6,58,0.00,,,0.00,WUHU21623XXSP,2013-08-15 18:22:00,
2013-08-15 13:27:00,77.5,61.3,30.06,NNE,32,6.2,9.4,57,0.00,,,0.00,WUHU21623XXSP,2013-08-15 18:27:00,
2013-08-15 13:32:00,77.4,61.2,30.06,NE,46,3.9,8.5,57,0.00,,,0.00,WUHU21623XXSP,2013-08-15 18:32:00,
2013-08-15 13:37:00,77.7,62.0,30.05,NNE,22,2.9,7.4,58,0.00,,,0.00,WUHU21623XXSP,2013-08-15 18:37:00,
2013-08-15 13:42:00,78.1,62.3,30.06,NE,45,6.7,8.5,58,0.00,,,0.00,WUHU21623XXSP,2013-08-15 18:42:00,
2013-08-15 13:47:00,78.6,62.3,30.06,North,350,3.3,8.5,57,0.00,,,0.00,WUHU21623XXSP,2013-08-15 18:47:00,
2013-08-15 13:52:00,79.5,63.1,30.06,NE,45,7.2,7.8,57,0.00,,,0.00,WUHU21623XXSP,2013-08-15 18:52:00,
2013-08-15 13:58:00,79.7,62.8,30.06,NNE,22,10.3,10.3,56,0.00,,,0.00,WUHU21623XXSP,2013-08-15 18:58:00,
2013-08-15 14:03:00,78.6,61.8,30.06,ENE,57,3.5,13.0,56,0.00,,,0.00,WUHU21623XXSP,2013-08-15 19:03:00,
2013-08-15 14:08:00,78.6,61.8,30.05,NNE,27,5.9,12.5,56,0.00,,,0.00,WUHU21623XXSP,2013-08-15 19:08:00,
2013-08-15 14:14:00,78.6,61.3,30.05,NE,45,8.1,12.3,55,0.00,,,0.00,WUHU21623XXSP,2013-08-15 19:14:00,
2013-08-15 14:19:00,77.9,61.6,30.05,ENE,67,3.1,10.5,57,0.00,,,0.00,WUHU21623XXSP,2013-08-15 19:19:00,
2013-08-15 14:25:00,78.1,61.3,30.05,NE,36,4.8,7.6,56,0.00,,,0.00,WUHU21623XXSP,2013-08-15 19:25:00,
2013-08-15 14:30:00,78.1,61.8,30.05,NNE,22,7.6,13.0,57,0.00,,,0.00,WUHU21623XXSP,2013-08-15 19:30:00,
2013-08-15 14:35:00,78.1,61.8,30.05,NNE,27,4.1,13.0,57,0.00,,,0.00,WUHU21623XXSP,2013-08-15 19:35:00,
2013-08-15 14:40:00,78.4,61.6,30.05,North,0,11.4,13.9,56,0.00,,,0.00,WUHU21623XXSP,2013-08-15 19:40:00,
2013-08-15 14:45:00,78.4,61.1,30.05,NNE,21,8.1,13.9,55,0.00,,,0.00,WUHU21623XXSP,2013-08-15 19:45:00,
2013-08-15 14:50:00,77.7,60.9,30.04,NNE,22,6.5,12.1,56,0.00,,,0.00,WUHU21623XXSP,2013-08-15 19:50:00,
2013-08-15 14:56:00,77.5,61.8,30.05,ENE,67,4.9,11.2,58,0.00,,,0.00,WUHU21623XXSP,2013-08-15 19:56:00,
2013-08-15 15:01:00,77.7,62.0,30.04,East,79,2.4,9.8,58,0.00,,,0.00,WUHU21623XXSP,2013-08-15 20:01:00,
2013-08-15 15:06:00,78.4,62.6,30.04,NNE,22,5.8,8.9,58,0.00,,,0.00,WUHU21623XXSP,2013-08-15 20:06:00,
2013-08-15 15:11:00,78.6,62.8,30.04,NNE,16,5.1,10.1,58,0.00,,,0.00,WUHU21623XXSP,2013-08-15 20:11:00,
2013-08-15 15:17:00,78.4,62.1,30.04,NE,41,5.9,11.0,57,0.00,,,0.00,WUHU21623XXSP,2013-08-15 20:17:00,
2013-08-15 15:22:00,77.9,61.6,30.04,North,0,10.3,11.2,57,0.00,,,0.00,WUHU21623XXSP,2013-08-15 20:22:00,
2013-08-15 15:27:00,77.5,61.3,30.03,North,0,5.8,11.2,57,0.00,,,0.00,WUHU21623XXSP,2013-08-15 20:27:00,
2013-08-15 15:32:00,77.7,62.0,30.03,NNE,22,10.3,15.2,58,0.00,,,0.00,WUHU21623XXSP,2013-08-15 20:32:00,
2013-08-15 15:37:00,78.1,61.8,30.03,NNW,338,4.4,15.2,57,0.00,,,0.00,WUHU21623XXSP,2013-08-15 20:37:00,
2013-08-15 15:42:00,78.4,62.1,30.03,NNE,22,2.6,11.4,57,0.00,,,0.00,WUHU21623XXSP,2013-08-15 20:42:00,
2013-08-15 15:47:00,78.6,62.3,30.03,NE,48,5.8,10.3,57,0.00,,,0.00,WUHU21623XXSP,2013-08-15 20:47:00,
2013-08-15 15:52:00,78.6,62.3,30.03,NE,45,4.3,10.3,57,0.00,,,0.00,WUHU21623XXSP,2013-08-15 20:52:00,
2013-08-15 15:57:00,78.1,61.8,30.03,NE,47,3.1,9.2,57,0.00,,,0.00,WUHU21623XXSP,2013-08-15 20:57:00,
2013-08-15 16:02:00,77.5,61.8,30.03,NNE,27,1.7,7.8,58,0.00,,,0.00,WUHU21623XXSP,2013-08-15 21:02:00,
2013-08-15 16:07:00,77.5,61.8,30.03,North,3,6.6,8.9,58,0.00,,,0.00,WUHU21623XXSP,2013-08-15 21:07:00,
2013-08-15 16:12:00,77.5,62.3,30.03,North,0,7.2,8.9,59,0.00,,,0.00,WUHU21623XXSP,2013-08-15 21:12:00,
2013-08-15 16:18:00,77.4,62.6,30.03,North,356,3.2,8.5,60,0.00,,,0.00,WUHU21623XXSP,2013-08-15 21:18:00,
2013-08-15 16:23:00,77.9,63.1,30.02,North,0,6.7,8.3,60,0.00,,,0.00,WUHU21623XXSP,2013-08-15 21:23:00,
2013-08-15 16:28:00,78.4,63.6,30.02,NNW,344,4.2,8.1,60,0.00,,,0.00,WUHU21623XXSP,2013-08-15 21:28:00,
2013-08-15 16:33:00,79.3,64.0,30.02,NNE,22,8.9,11.4,59,0.00,,,0.00,WUHU21623XXSP,2013-08-15 21:33:00,
2013-08-15 16:38:00,79.3,63.0,30.02,NNE,22,9.4,11.4,57,0.00,,,0.00,WUHU21623XXSP,2013-08-15 21:38:00,
2013-08-15 16:43:00,78.4,61.6,30.03,North,9,5.4,12.5,56,0.00,,,0.00,WUHU21623XXSP,2013-08-15 21:43:00,
2013-08-15 16:48:00,77.7,61.5,30.03,NE,34,3.2,9.4,57,0.00,,,0.00,WUHU21623XXSP,2013-08-15 21:48:00,
2013-08-15 16:53:00,77.4,61.2,30.03,NNE,29,6.4,8.5,57,0.00,,,0.00,WUHU21623XXSP,2013-08-15 21:53:00,
2013-08-15 16:58:00,77.2,61.5,30.02,NNE,22,4.0,8.5,58,0.00,,,0.00,WUHU21623XXSP,2013-08-15 21:58:00,
2013-08-15 17:03:00,77.5,61.8,30.02,North,0,6.0,7.6,58,0.00,,,0.00,WUHU21623XXSP,2013-08-15 22:03:00,
2013-08-15 17:08:00,78.3,62.5,30.02,NNE,22,4.7,7.6,58,0.00,,,0.00,WUHU21623XXSP,2013-08-15 22:08:00,
2013-08-15 17:13:00,78.6,62.3,30.02,NE,46,1.2,4.9,57,0.00,,,0.00,WUHU21623XXSP,2013-08-15 22:13:00,
2013-08-15 17:18:00,78.6,62.3,30.02,North,0,10.1,10.1,57,0.00,,,0.00,WUHU21623XXSP,2013-08-15 22:18:00,
2013-08-15 17:23:00,78.6,62.3,30.02,North,10,5.8,10.1,57,0.00,,,0.00,WUHU21623XXSP,2013-08-15 22:23:00,
2013-08-15 17:28:00,78.8,62.0,30.02,North,2,6.7,9.4,56,0.00,,,0.00,WUHU21623XXSP,2013-08-15 22:28:00,
2013-08-15 17:33:00,78.8,62.0,30.03,NNE,22,6.7,10.1,56,0.00,,,0.00,WUHU21623XXSP,2013-08-15 22:33:00,
2013-08-15 17:38:00,78.6,62.3,30.02,NE,45,4.7,10.1,57,0.00,,,0.00,WUHU21623XXSP,2013-08-15 22:38:00,
2013-08-15 17:39:00,78.6,62.3,30.02,NNE,22,5.1,10.1,57,0.00,,,0.00,WUHU21623XXSP,2013-08-15 22:39:00,
2013-08-15 17:44:00,78.1,61.8,30.03,ENE,67,7.2,9.8,57,0.00,,,0.00,WUHU21623XXSP,2013-08-15 22:44:00,
2013-08-15 17:49:00,78.1,61.8,30.03,NE,45,4.7,9.8,57,0.00,,,0.00,WUHU21623XXSP,2013-08-15 22:49:00,
2013-08-15 17:54:00,77.9,61.6,30.03,ENE,67,4.9,8.3,57,0.00,,,0.00,WUHU21623XXSP,2013-08-15 22:54:00,
2013-08-15 17:59:00,77.7,62.0,30.03,NNE,22,3.6,7.2,58,0.00,,,0.00,WUHU21623XXSP,2013-08-15 22:59:00,
2013-08-15 18:04:00,77.7,62.0,30.03,ENE,67,5.4,6.3,58,0.00,,,0.00,WUHU21623XXSP,2013-08-15 23:04:00,
2013-08-15 18:09:00,77.5,61.8,30.03,NNE,23,5.3,6.3,58,0.00,,,0.00,WUHU21623XXSP,2013-08-15 23:09:00,
2013-08-15 18:14:00,77.5,61.8,30.03,North,0,6.7,6.9,58,0.00,,,0.00,WUHU21623XXSP,2013-08-15 23:14:00,
2013-08-15 18:19:00,77.5,61.8,30.03,NNE,31,4.3,8.1,58,0.00,,,0.00,WUHU21623XXSP,2013-08-15 23:19:00,
2013-08-15 18:24:00,77.2,61.5,30.03,NNE,23,4.7,8.1,58,0.00,,,0.00,WUHU21623XXSP,2013-08-15 23:24:00,
2013-08-15 18:30:00,77.2,61.5,30.03,NNE,22,4.0,6.7,58,0.00,,,0.00,WUHU21623XXSP,2013-08-15 23:30:00,
2013-08-15 18:35:00,77.0,61.8,30.03,NNE,21,2.6,6.0,59,0.00,,,0.00,WUHU21623XXSP,2013-08-15 23:35:00,
2013-08-15 18:40:00,76.8,61.6,30.03,NNE,22,3.6,6.3,59,0.00,,,0.00,WUHU21623XXSP,2013-08-15 23:40:00,
2013-08-15 18:45:00,76.6,61.9,30.03,NNE,12,3.0,6.3,60,0.00,,,0.00,WUHU21623XXSP,2013-08-15 23:45:00,
2013-08-15 18:50:00,76.3,61.6,30.03,NE,38,2.8,6.5,60,0.00,,,0.00,WUHU21623XXSP,2013-08-15 23:50:00,
2013-08-15 18:55:00,75.9,61.2,30.03,North,7,5.0,7.4,60,0.00,,,0.00,WUHU21623XXSP,2013-08-15 23:55:00,
2013-08-15 19:00:00,75.7,61.5,30.03,North,4,5.6,7.4,61,0.00,,,0.00,WUHU21623XXSP,2013-08-16 00:00:00,
2013-08-15 19:05:00,75.4,61.7,30.03,NNE,22,4.7,7.2,62,0.00,,,0.00,WUHU21623XXSP,2013-08-16 00:05:00,
2013-08-15 19:10:00,75.0,61.8,30.03,North,6,3.6,6.3,63,0.00,,,0.00,WUHU21623XXSP,2013-08-16 00:10:00,
2013-08-15 19:15:00,74.5,61.7,30.03,North,0,3.8,4.9,64,0.00,,,0.00,WUHU21623XXSP,2013-08-16 00:15:00,
2013-08-15 19:20:00,74.1,61.4,30.03,NNW,348,1.2,4.7,64,0.00,,,0.00,WUHU21623XXSP,2013-08-16 00:20:00,
2013-08-15 19:25:00,73.9,61.6,30.03,North,0,2.0,4.7,65,0.00,,,0.00,WUHU21623XXSP,2013-08-16 00:25:00,
2013-08-15 19:30:00,73.6,61.3,30.03,NNE,22,0.9,3.8,65,0.00,,,0.00,WUHU21623XXSP,2013-08-16 00:30:00,
2013-08-15 19:35:00,73.2,61.4,30.04,North,0,1.6,2.0,66,0.00,,,0.00,WUHU21623XXSP,2013-08-16 00:35:00,
2013-08-15 19:40:00,73.0,61.2,30.04,NE,45,0.9,2.7,66,0.00,,,0.00,WUHU21623XXSP,2013-08-16 00:40:00,
2013-08-15 19:45:00,72.7,61.3,30.04,NNE,25,0.9,1.8,67,0.00,,,0.00,WUHU21623XXSP,2013-08-16 00:45:00,
2013-08-15 19:50:00,72.3,61.3,30.03,NE,45,0.0,2.7,68,0.00,,,0.00,WUHU21623XXSP,2013-08-16 00:50:00,
2013-08-15 19:55:00,72.1,61.2,30.03,NNE,22,1.1,2.7,68,0.00,,,0.00,WUHU21623XXSP,2013-08-16 00:55:00,
2013-08-15 20:01:00,71.8,60.9,30.03,NNE,22,0.0,1.6,68,0.00,,,0.00,WUHU21623XXSP,2013-08-16 01:01:00,
2013-08-15 20:06:00,71.4,60.5,30.04,NNE,22,0.0,0.0,68,0.00,,,0.00,WUHU21623XXSP,2013-08-16 01:06:00,
2013-08-15 20:11:00,71.2,60.7,30.04,NE,45,0.0,0.7,69,0.00,,,0.00,WUHU21623XXSP,2013-08-16 01:11:00,
2013-08-15 20:16:00,71.2,60.7,30.04,NNE,22,1.0,1.3,69,0.00,,,0.00,WUHU21623XXSP,2013-08-16 01:16:00,
2013-08-15 20:21:00,70.9,60.4,30.04,NNE,22,0.9,1.6,69,0.00,,,0.00,WUHU21623XXSP,2013-08-16 01:21:00,
2013-08-15 20:26:00,70.7,60.2,30.04,North,0,0.0,1.6,69,0.00,,,0.00,WUHU21623XXSP,2013-08-16 01:26:00,
2013-08-15 20:31:00,70.5,60.4,30.04,NNE,22,0.0,0.7,70,0.00,,,0.00,WUHU21623XXSP,2013-08-16 01:31:00,
2013-08-15 20:36:00,70.3,60.2,30.04,NNE,30,1.5,2.0,70,0.00,,,0.00,WUHU21623XXSP,2013-08-16 01:36:00,
2013-08-15 20:42:00,70.0,59.9,30.04,NNE,22,1.1,2.0,70,0.00,,,0.00,WUHU21623XXSP,2013-08-16 01:42:00,
2013-08-15 20:47:00,69.8,60.1,30.04,NNE,22,1.6,2.0,71,0.00,,,0.00,WUHU21623XXSP,2013-08-16 01:47:00,
2013-08-15 20:52:00,69.6,59.9,30.04,NNE,22,1.5,2.0,71,0.00,,,0.00,WUHU21623XXSP,2013-08-16 01:52:00,
2013-08-15 20:57:00,69.6,59.9,30.04,NNE,22,0.0,2.0,71,0.00,,,0.00,WUHU21623XXSP,2013-08-16 01:57:00,
2013-08-15 21:02:00,69.4,59.8,30.04,NNE,22,1.5,2.5,71,0.00,,,0.00,WUHU21623XXSP,2013-08-16 02:02:00,
2013-08-15 21:07:00,69.1,59.5,30.05,NNE,22,0.0,2.7,71,0.00,,,0.00,WUHU21623XXSP,2013-08-16 02:07:00,
2013-08-15 21:12:00,68.9,59.7,30.05,NNE,22,0.0,2.7,72,0.00,,,0.00,WUHU21623XXSP,2013-08-16 02:12:00,
2013-08-15 21:17:00,68.7,59.5,30.05,NNE,22,2.3,3.1,72,0.00,,,0.00,WUHU21623XXSP,2013-08-16 02:17:00,
2013-08-15 21:22:00,68.5,59.3,30.04,NNE,22,1.3,3.1,72,0.00,,,0.00,WUHU21623XXSP,2013-08-16 02:22:00,
2013-08-15 21:27:00,68.4,59.2,30.05,NE,38,1.5,2.0,72,0.00,,,0.00,WUHU21623XXSP,2013-08-16 02:27:00,
2013-08-15 21:32:00,68.4,59.6,30.05,NE,45,1.3,2.0,73,0.00,,,0.00,WUHU21623XXSP,2013-08-16 02:32:00,
2013-08-15 21:37:00,68.2,59.4,30.05,NNE,22,1.6,1.8,73,0.00,,,0.00,WUHU21623XXSP,2013-08-16 02:37:00,
2013-08-15 21:42:00,68.2,59.4,30.05,NE,35,1.8,3.1,73,0.00,,,0.00,WUHU21623XXSP,2013-08-16 02:42:00,
2013-08-15 21:47:00,68.2,59.4,30.05,NNE,19,1.7,4.5,73,0.00,,,0.00,WUHU21623XXSP,2013-08-16 02:47:00,
2013-08-15 21:52:00,67.8,59.0,30.05,NE,39,1.9,4.5,73,0.00,,,0.00,WUHU21623XXSP,2013-08-16 02:52:00,
2013-08-15 21:57:00,67.8,59.0,30.05,NE,45,1.5,2.7,73,0.00,,,0.00,WUHU21623XXSP,2013-08-16 02:57:00,
2013-08-15 22:02:00,67.8,59.0,30.05,NE,45,0.0,3.4,73,0.00,,,0.00,WUHU21623XXSP,2013-08-16 03:02:00,
2013-08-15 22:07:00,67.6,58.8,30.05,ENE,57,0.8,3.4,73,0.00,,,0.00,WUHU21623XXSP,2013-08-16 03:07:00,
2013-08-15 22:12:00,67.6,58.8,30.06,NE,45,3.8,3.8,73,0.00,,,0.00,WUHU21623XXSP,2013-08-16 03:12:00,
2013-08-15 22:17:00,67.5,58.7,30.05,NNE,22,1.6,3.8,73,0.00,,,0.00,WUHU21623XXSP,2013-08-16 03:17:00,
2013-08-15 22:22:00,67.3,58.9,30.06,NNE,22,0.0,3.8,74,0.00,,,0.00,WUHU21623XXSP,2013-08-16 03:22:00,
2013-08-15 22:27:00,67.1,58.7,30.06,NNE,22,0.0,0.0,74,0.00,,,0.00,WUHU21623XXSP,2013-08-16 03:27:00,
2013-08-15 22:32:00,66.9,58.5,30.06,NNE,22,0.0,0.0,74,0.00,,,0.00,WUHU21623XXSP,2013-08-16 03:32:00,
2013-08-15 22:37:00,66.9,58.8,30.06,NE,45,0.9,1.1,75,0.00,,,0.00,WUHU21623XXSP,2013-08-16 03:37:00,
2013-08-15 22:42:00,66.9,58.8,30.06,NNE,31,1.2,1.6,75,0.00,,,0.00,WUHU21623XXSP,2013-08-16 03:42:00,
2013-08-15 22:47:00,66.9,58.8,30.06,NNE,22,2.2,2.5,75,0.00,,,0.00,WUHU21623XXSP,2013-08-16 03:47:00,
2013-08-15 22:52:00,66.7,58.6,30.05,NE,51,1.9,5.4,75,0.00,,,0.00,WUHU21623XXSP,2013-08-16 03:52:00,
2013-08-15 22:57:00,66.7,58.6,30.06,NE,45,1.0,5.4,75,0.00,,,0.00,WUHU21623XXSP,2013-08-16 03:57:00,
2013-08-15 23:01:00,66.7,58.6,30.05,NE,45,0.4,3.4,75,0.00,,,0.00,WUHU21623XXSP,2013-08-16 04:01:00,
2013-08-15 23:06:00,66.6,58.6,30.06,NE,45,0.0,2.7,75,0.00,,,0.00,WUHU21623XXSP,2013-08-16 04:06:00,
2013-08-15 23:11:00,66.6,58.6,30.06,NNE,22,0.0,2.7,75,0.00,,,0.00,WUHU21623XXSP,2013-08-16 04:11:00,
2013-08-15 23:16:00,66.4,58.7,30.06,North,2,2.5,3.1,76,0.00,,,0.00,WUHU21623XXSP,2013-08-16 04:16:00,
2013-08-15 23:21:00,66.4,58.7,30.05,NNE,20,2.1,3.1,76,0.00,,,0.00,WUHU21623XXSP,2013-08-16 04:21:00,
2013-08-15 23:26:00,66.0,58.3,30.06,NE,45,3.1,3.4,76,0.00,,,0.00,WUHU21623XXSP,2013-08-16 04:26:00,
2013-08-15 23:31:00,66.0,58.3,30.06,NNE,22,1.1,3.8,76,0.00,,,0.00,WUHU21623XXSP,2013-08-16 04:31:00,
2013-08-15 23:36:00,66.0,58.7,30.05,NNE,22,1.4,3.8,77,0.00,,,0.00,WUHU21623XXSP,2013-08-16 04:36:00,
2013-08-15 23:41:00,65.8,58.5,30.06,North,0,2.5,3.6,77,0.00,,,0.00,WUHU21623XXSP,2013-08-16 04:41:00,
2013-08-15 23:46:00,65.7,58.4,30.06,NNE,22,0.0,2.5,77,0.00,,,0.00,WUHU21623XXSP,2013-08-16 04:46:00,
2013-08-15 23:51:00,65.5,58.2,30.06,NNE,22,0.9,2.0,77,0.00,,,0.00,WUHU21623XXSP,2013-08-16 04:51:00,
2013-08-15 23:56:00,65.3,58.4,30.06,NNE,23,1.6,3.6,78,0.00,,,0.00,WUHU21623XXSP,2013-08-16 04:56:00,